This is the latest recevied weather packets stored in our database for station/object EB1GOD-1. If no packets are shown the sender has not sent any weather packets the latest 10 day(s).
| Time | Temp. | Humidity | Pressure | Rain* | Wind** | Luminosity | Snow |
|---|---|---|---|---|---|---|---|
| 1777837656 | 12.78° C | 93% | 1152.3 hPa | - | - | - | - |
| 1777836756 | 12.22° C | 90% | 1152.1 hPa | - | - | - | - |
| 1777835856 | 12.78° C | 89% | 1152 hPa | - | - | - | - |
| 1777834956 | 13.33° C | 92% | 1151.8 hPa | - | - | - | - |
| 1777834056 | 12.78° C | 90% | 1151.8 hPa | - | - | - | - |
| 1777833156 | 12.78° C | 89% | 1151.7 hPa | - | - | - | - |
| 1777832256 | 13.89° C | 87% | 1151.7 hPa | - | - | - | - |
| 1777831356 | 13.89° C | 84% | 1151.7 hPa | - | - | - | - |
| 1777830456 | 13.89° C | 83% | 1151.5 hPa | - | - | - | - |
| 1777829556 | 13.89° C | 81% | 1151.5 hPa | - | - | - | - |
| 1777828656 | 14.44° C | 79% | 1151.4 hPa | - | - | - | - |
| 1777827755 | 13.89° C | 79% | 1151.4 hPa | - | - | - | - |
| 1777826855 | 14.44° C | 79% | 1151.4 hPa | - | - | - | - |
| 1777825955 | 14.44° C | 80% | 1151.3 hPa | - | - | - | - |
| 1777825055 | 13.89° C | 78% | 1151.3 hPa | - | - | - | - |
| 1777824155 | 14.44° C | 83% | 1151.4 hPa | - | - | - | - |
| 1777823255 | 13.89° C | 84% | 1151.4 hPa | - | - | - | - |
| 1777822355 | 13.89° C | 86% | 1151.4 hPa | - | - | - | - |
| 1777821455 | 13.33° C | 85% | 1151.6 hPa | - | - | - | - |
| 1777820555 | 13.33° C | 84% | 1151.7 hPa | - | - | - | - |
| 1777819655 | 13.33° C | 88% | 1151.9 hPa | - | - | - | - |
| 1777818755 | 13.33° C | 88% | 1151.8 hPa | - | - | - | - |
| 1777817855 | 13.89° C | 88% | 1151.8 hPa | - | - | - | - |
| 1777816955 | 13.89° C | 87% | 1151.8 hPa | - | - | - | - |
| 1777816054 | 13.89° C | 86% | 1151.7 hPa | - | - | - | - |
* Rain since midnight (hover to see other rain measurements)
** Current wind speed in m/s (hover to see current wind gust speed)